Total_Precipitation_Accumulation
2.13 1.69 2.79 2.79 2.52 2.21 2.03 2.06 2.14 2.18 2.22 2.11 1.98 1.79 1.65 1.55 1.36 1.27 1.21 1.15 1.12 1.17 1.30 1.37 1.30 1.26 1.13 1.10 1.14 1.17 1.16 1.08 1.08 1.01 0.90 0.90 0.90 1.00 1.20 1.36 1.63 2.00 1.61
1.47 1.39 2.40 2.70 2.53 2.32 2.25 2.22 2.13 2.17 2.22 2.03 1.84 1.72 1.54 1.40 1.31 1.27 1.19 1.17 1.10 1.05 1.10 1.23 1.27 1.29 1.26 1.24 1.35 1.37 1.27 1.16 1.23 1.19 1.21 1.26 1.10 1.09 1.09 1.27 1.69 1.96 1.50
1.25 1.22 1.79 2.51 2.45 2.26 2.25 2.21 2.14 2.10 2.06 1.84 1.69 1.52 1.37 1.23 1.19 1.18 1.21 1.20 1.15 1.03 1.02 1.15 1.27 1.38 1.42 1.45 1.45 1.43 1.36 1.32 1.31 1.32 1.70 2.16 1.66 1.32 1.28 1.29 1.36 1.38 1.36
1.03 1.06 1.38 2.06 2.09 2.03 2.04 1.97 1.92 1.79 1.66 1.68 1.68 1.50 1.35 1.21 1.18 1.23 1.26 1.19 1.15 1.05 1.07 1.15 1.24 1.31 1.35 1.38 1.35 1.30 1.28 1.34 1.42 1.41 1.76 2.16 2.12 1.70 1.51 1.49 1.33 1.32 1.44
0.87 1.02 1.52 1.99 1.94 1.93 1.89 1.73 1.72 1.59 1.46 1.45 1.48 1.42 1.41 1.29 1.18 1.16 1.21 1.21 1.20 1.14 1.11 1.13 1.17 1.23 1.29 1.31 1.27 1.24 1.25 1.47 1.47 1.30 1.51 1.87 2.33 1.96 1.58 1.57 1.47 1.47 1.52
0.98 1.01 1.30 1.71 1.74 1.74 1.67 1.61 1.59 1.49 1.47 1.36 1.28 1.30 1.34 1.30 1.23 1.15 1.22 1.19 1.13 1.16 1.20 1.22 1.24 1.30 1.29 1.27 1.24 1.32 1.40 1.42 1.31 1.41 1.61 1.86 2.14 1.91 1.49 1.39 1.50 1.62 1.69
0.89 0.86 1.04 1.53 1.58 1.57 1.54 1.54 1.56 1.49 1.44 1.31 1.23 1.30 1.43 1.36 1.28 1.20 1.24 1.20 1.14 1.13 1.18 1.21 1.25 1.29 1.22 1.23 1.24 1.25 1.36 1.34 1.34 1.52 1.63 1.82 1.81 1.74 1.45 1.34 1.51 1.61 1.69
0.99 0.89 0.97 1.50 1.63 1.52 1.51 1.46 1.49 1.54 1.47 1.33 1.25 1.23 1.29 1.29 1.21 1.19 1.16 1.18 1.16 1.13 1.18 1.19 1.21 1.24 1.14 1.10 1.10 1.15 1.28 1.20 1.14 1.31 1.49 1.76 1.89 1.76 1.37 1.27 1.33 1.47 1.64
1.30 1.23 1.24 1.40 1.46 1.53 1.48 1.40 1.55 1.68 1.56 1.36 1.22 1.18 1.13 1.15 1.12 1.10 1.09 1.17 1.16 1.14 1.16 1.18 1.21 1.25 1.15 1.06 1.04 1.16 1.32 1.23 1.08 1.25 1.26 1.66 1.98 1.81 1.47 1.27 1.26 1.44 1.57
1.25 1.21 1.25 1.36 1.37 1.37 1.41 1.54 1.71 2.03 1.92 1.52 1.27 1.10 1.05 1.00 1.01 1.10 1.07 1.11 1.18 1.22 1.26 1.27 1.30 1.27 1.24 1.14 1.13 1.27 1.29 1.03 1.01 1.02 1.24 1.52 2.04 1.86 1.50 1.28 1.18 1.23 1.32
0.96 1.01 1.10 1.18 1.22 1.29 1.26 1.44 1.79 2.12 2.16 1.77 1.43 1.27 1.05 0.77 0.77 0.96 1.10 1.23 1.34 1.39 1.45 1.50 1.49 1.41 1.31 1.18 1.21 1.28 1.05 0.83 1.05 1.12 1.32 1.66 1.93 1.87 1.52 1.24 1.11 1.14 1.12
0.76 0.72 0.75 0.80 0.90 0.97 0.99 1.25 1.53 1.60 1.79 1.52 1.45 1.32 1.15 1.09 1.01 0.85 0.95 1.26 1.47 1.47 1.49 1.57 1.60 1.37 1.08 0.87 0.98 1.06 0.84 0.82 0.96 1.05 1.27 1.81 2.13 2.00 1.58 1.32 1.22 1.17 1.07
0.68 0.65 0.60 0.61 0.68 0.79 0.91 1.09 1.29 1.45 1.60 1.58 1.52 1.46 1.47 1.43 1.09 0.94 1.01 1.12 1.25 1.29 1.22 1.31 1.31 1.06 0.87 0.80 0.90 0.85 0.74 0.77 0.87 0.98 1.33 1.91 2.30 2.16 1.69 1.36 1.34 1.29 1.22
0.59 0.69 0.64 0.50 0.52 0.59 0.68 0.86 1.04 1.24 1.43 1.45 1.26 1.18 1.32 1.35 1.16 1.03 1.17 1.24 1.28 1.29 1.35 1.36 1.30 1.13 0.89 0.83 0.87 0.87 0.80 0.81 0.87 0.93 1.22 1.56 2.02 2.19 1.98 1.68 1.62 1.50 1.48
0.58 0.66 0.69 0.60 0.54 0.56 0.61 0.70 0.74 1.02 1.19 1.31 1.35 1.14 1.26 1.30 1.24 1.12 1.06 1.25 1.23 1.26 1.30 1.37 1.40 1.29 1.18 1.06 1.01 0.93 0.96 0.90 0.86 0.84 1.06 1.20 1.45 1.91 2.13 2.10 2.04 1.81 1.68
0.54 0.62 0.65 0.68 0.65 0.64 0.64 0.65 0.63 0.68 0.78 0.88 0.84 0.80 0.99 1.12 1.13 1.13 1.00 1.07 1.16 1.30 1.50 1.57 1.43 1.36 1.30 1.25 1.23 1.14 1.10 1.03 0.96 0.86 1.00 1.07 1.01 1.21 1.61 2.10 2.34 2.13 1.95
0.51 0.58 0.64 0.68 0.73 0.74 0.75 0.80 0.73 0.67 0.71 0.71 0.67 0.67 0.78 0.90 0.98 1.09 1.09 1.07 1.10 1.30 1.55 1.72 1.60 1.49 1.34 1.33 1.32 1.29 1.18 1.15 1.07 0.97 1.06 1.19 1.02 0.96 1.25 1.79 2.25 2.36 2.22
0.49 0.48 0.51 0.53 0.62 0.66 0.71 0.77 0.84 0.82 0.82 0.79 0.81 0.78 0.73 0.86 0.99 1.11 1.16 1.12 1.12 1.31 1.56 1.78 1.83 1.80 1.70 1.61 1.51 1.42 1.35 1.42 1.26 1.14 1.17 1.26 1.35 1.19 1.16 1.38 1.73 2.08 2.28
0.43 0.37 0.37 0.41 0.43 0.47 0.52 0.61 0.73 0.80 0.86 0.92 0.93 0.94 0.94 1.00 1.03 1.15 1.32 1.34 1.33 1.45 1.55 1.60 1.72 1.74 1.78 1.76 1.57 1.53 1.45 1.53 1.55 1.40 1.46 1.49 1.52 1.48 1.33 1.16 1.28 1.44 1.84
0.35 0.35 0.36 0.38 0.36 0.35 0.39 0.50 0.63 0.70 0.76 0.93 1.00 1.05 1.32 1.45 1.25 1.21 1.33 1.35 1.40 1.59 1.66 1.77 1.98 1.92 1.81 1.90 1.72 1.61 1.57 1.54 1.52 1.60 1.68 1.65 1.62 1.52 1.51 1.32 1.36 1.23 1.42
0.22 0.21 0.27 0.30 0.36 0.35 0.31 0.37 0.50 0.61 0.74 0.87 1.04 1.09 1.32 1.44 1.35 1.36 1.37 1.39 1.43 1.52 1.58 1.77 2.13 2.15 1.96 1.85 2.04 2.00 1.91 1.71 1.62 1.64 1.65 1.74 1.76 1.62 1.61 1.62 1.50 1.32 1.19
0.21 0.15 0.17 0.21 0.29 0.36 0.38 0.44 0.58 0.76 0.87 0.98 1.13 1.19 1.29 1.32 1.32 1.24 1.40 1.50 1.47 1.61 1.69 1.86 2.14 2.35 2.12 1.93 2.27 2.70 2.47 2.20 1.85 1.63 1.61 1.53 1.64 1.65 1.55 1.43 1.35 1.29 1.19
0.15 0.12 0.15 0.23 0.35 0.52 0.68 0.90 1.16 1.45 1.59 1.50 1.37 1.43 1.53 1.61 1.57 1.50 1.59 1.71 1.63 1.69 1.78 1.82 1.91 2.35 2.48 2.23 2.20 2.77 2.65 2.45 2.38 1.87 1.50 1.35 1.54 1.65 1.65 1.51 1.40 1.42 1.35
0.19 0.24 0.33 0.44 0.60 0.76 0.96 1.19 1.45 1.71 1.89 1.91 1.92 1.97 1.94 1.89 1.78 1.67 1.68 1.73 1.73 1.80 1.78 1.66 1.80 2.22 2.67 2.70 2.48 2.30 2.17 2.14 2.33 2.22 1.66 1.38 1.46 1.57 1.72 1.59 1.52 1.53 1.51
0.35 0.48 0.59 0.80 0.96 1.09 1.16 1.25 1.47 1.58 1.66 1.78 1.92 1.99 2.00 1.92 1.80 1.65 1.59 1.67 1.73 1.81 1.80 1.86 2.05 2.33 2.61 2.86 2.81 2.56 2.27 2.04 1.69 1.89 1.88 1.67 1.45 1.36 1.42 1.49 1.60 1.59 1.55
0.64 0.87 1.00 1.10 1.19 1.18 1.16 1.18 1.31 1.46 1.55 1.65 1.81 1.87 1.81 1.69 1.65 1.58 1.55 1.54 1.51 1.58 1.67 1.86 2.12 2.25 2.44 2.67 2.73 2.46 2.28 2.14 1.95 1.82 1.68 1.74 1.72 1.44 1.30 1.27 1.36 1.49 1.49